Boonville, MO

1:06 AM CST on January 21, 2017 (GMT -0600)
Boonville

Weather History for KVER - July, 2012

Change the Weather History Date:

Wednesday, July 11, 2012

  Actual Average Record
Temperature  
Mean Temperature 83 °F -  
Max Temperature 104 °F 90 °F 104 °F (1980)
Min Temperature 72 °F 69 °F 57 °F (1953)
Cooling Degree Days 18    
Growing Degree Days 33 (Base 50)    
Moisture  
Dew Point 57 °F    
Average Humidity 45    
Maximum Humidity 72    
Minimum Humidity 25    
Precipitation  
Precipitation 0.00 in - - ()
Sea Level Pressure  
Sea Level Pressure 30.04 in    
Wind  
Wind Speed 6 mph (ENE)    
Max Wind Speed 10 mph    
Max Gust Speed 20 mph    
Visibility 10 miles    
Events      
Averages and records for this station are not official NWS values.
T = Trace of Precipitation, MM = Missing Value Source: NWS Daily Summary

Daily Weather History Graph

Daily Weather History Graph

Search for Another Location

Airport or City:

Trip Planner

Search our weather history database for the weather conditions in past years. The results will help you decide how hot, cold, wet, or windy it might be!

Date:

Astronomy

Jul. 11, 2012 Rise Set
Actual Time 5:55 AM CDT 8:37 PM CDT
Civil Twilight 5:23 AM CDT 9:08 PM CDT
Nautical Twilight 4:44 AM CDT 9:47 PM CDT
Astronomical Twilight 3:59 AM CDT 10:31 PM CDT
Moon 12:27 AM CDT (7/11) 2:14 PM CDT (7/11)
Length of Visible Light 15h 44m
Length of Day
14h 42m
Last Quarter, 44% of the Moon is Illuminated
Jul 11
Last Quarter
Jul 18
New
Jul 26
First Quarter
Aug 1
Full
Aug 9
Last Quarter

Hourly Weather History & Observations

Time (CDT) Temp. Heat Index Dew Point Humidity Pressure Visibility Wind Dir Wind Speed Gust Speed Precip Events Conditions
12:15 AM 79.2 °F - 63.0 °F 57% 30.02 in 10.0 mi NE 8.1 mph - N/A   Scattered Clouds
12:35 AM 78.4 °F - 63.0 °F 59% 30.02 in 10.0 mi NE 5.8 mph - N/A   Scattered Clouds
12:55 AM 77.9 °F - 63.0 °F 60% 30.02 in 10.0 mi NE 5.8 mph - N/A   Scattered Clouds
1:15 AM 77.2 °F - 63.0 °F 61% 30.02 in 10.0 mi ENE 6.9 mph - N/A   Clear
1:35 AM 77.0 °F - 62.8 °F 61% 30.03 in 10.0 mi ENE 5.8 mph - N/A   Scattered Clouds
1:55 AM 76.6 °F - 62.8 °F 62% 30.03 in 10.0 mi ENE 5.8 mph - N/A   Scattered Clouds
2:15 AM 75.6 °F - 63.0 °F 65% 30.03 in 10.0 mi NE 4.6 mph - N/A   Clear
2:35 AM 75.0 °F - 63.0 °F 66% 30.03 in 10.0 mi NE 4.6 mph - N/A   Clear
2:55 AM 74.7 °F - 63.0 °F 67% 30.03 in 10.0 mi NE 4.6 mph - N/A   Clear
3:15 AM 73.9 °F - 63.0 °F 68% 30.03 in 10.0 mi NNE 4.6 mph - N/A   Clear
3:35 AM 73.0 °F - 63.1 °F 71% 30.03 in 10.0 mi NNE 4.6 mph - N/A   Clear
3:55 AM 72.5 °F - 63.0 °F 72% 30.03 in 10.0 mi NE 4.6 mph - N/A   Clear
4:15 AM 72.7 °F - 63.0 °F 71% 30.03 in 10.0 mi NE 5.8 mph - N/A   Clear
4:35 AM 72.1 °F - 62.8 °F 72% 30.04 in 10.0 mi NE 5.8 mph - N/A   Clear
4:55 AM 72.0 °F - 62.6 °F 72% 30.04 in 10.0 mi ENE 5.8 mph - N/A   Clear
5:15 AM 72.1 °F - 62.4 °F 71% 30.04 in 10.0 mi ENE 4.6 mph - N/A   Scattered Clouds
5:35 AM 72.5 °F - 62.1 °F 70% 30.05 in 10.0 mi ENE 5.8 mph - N/A   Mostly Cloudy
5:55 AM 72.7 °F - 61.5 °F 68% 30.05 in 10.0 mi ENE 5.8 mph - N/A   Scattered Clouds
6:15 AM 72.5 °F - 60.6 °F 66% 30.05 in 10.0 mi ENE 4.6 mph - N/A   Clear
6:35 AM 72.5 °F - 59.9 °F 64% 30.06 in 10.0 mi ENE 5.8 mph - N/A   Scattered Clouds
6:55 AM 72.9 °F - 59.2 °F 62% 30.06 in 10.0 mi ENE 8.1 mph - N/A   Scattered Clouds
7:35 AM 74.8 °F - 58.1 °F 56% 30.07 in 10.0 mi East 8.1 mph - N/A   Scattered Clouds
7:55 AM 74.1 °F - 57.6 °F 56% 30.07 in 10.0 mi ENE 4.6 mph - N/A   Scattered Clouds
8:35 AM 76.5 °F - 56.8 °F 51% 30.08 in 10.0 mi East 6.9 mph - N/A   Overcast
8:55 AM 78.1 °F - 55.4 °F 45% 30.08 in 10.0 mi East 9.2 mph - N/A   Scattered Clouds
9:15 AM 80.2 °F 80.2 °F 54.7 °F 41% 30.08 in 10.0 mi East 9.2 mph - N/A   Clear
9:35 AM 80.4 °F 80.2 °F 54.3 °F 40% 30.08 in 10.0 mi East 8.1 mph - N/A   Clear
9:55 AM 81.5 °F 80.9 °F 54.3 °F 39% 30.08 in 10.0 mi ESE 9.2 mph - N/A   Clear
10:15 AM 81.9 °F 81.2 °F 54.7 °F 39% 30.08 in 10.0 mi ENE 6.9 mph - N/A   Clear
10:35 AM 83.3 °F 82.2 °F 54.7 °F 37% 30.08 in 10.0 mi ENE 8.1 mph - N/A   Clear
10:55 AM 84.6 °F 83.2 °F 54.9 °F 36% 30.08 in 10.0 mi East 6.9 mph - N/A   Scattered Clouds
11:15 AM 85.1 °F 83.8 °F 55.2 °F 36% 30.08 in 10.0 mi East 5.8 mph - N/A   Scattered Clouds
11:35 AM 85.5 °F 84.1 °F 55.6 °F 36% 30.07 in 10.0 mi East 5.8 mph - N/A   Scattered Clouds
11:55 AM 87.3 °F 85.9 °F 56.3 °F 35% 30.07 in 10.0 mi ENE 5.8 mph - N/A   Scattered Clouds
12:15 PM 88.2 °F 86.7 °F 56.7 °F 34% 30.07 in 10.0 mi NE 6.9 mph - N/A   Clear
12:35 PM 88.9 °F 87.3 °F 56.5 °F 33% 30.06 in 10.0 mi ENE 4.6 mph - N/A   Clear
12:55 PM 90.0 °F 88.3 °F 56.5 °F 32% 30.06 in 10.0 mi East 5.8 mph - N/A   Clear
1:15 PM 91.0 °F 89.2 °F 55.6 °F 30% 30.05 in 10.0 mi ESE 6.9 mph - N/A   Clear
1:35 PM 91.4 °F 89.4 °F 55.2 °F 29% 30.05 in 10.0 mi East 6.9 mph - N/A   Clear
1:55 PM 92.8 °F 90.6 °F 54.5 °F 27% 30.05 in 10.0 mi ENE 8.1 mph - N/A   Clear
2:15 PM 94.1 °F 91.9 °F 54.7 °F 26% 30.04 in 10.0 mi ESE 8.1 mph - N/A   Clear
2:35 PM 93.7 °F 91.7 °F 54.9 °F 27% 30.03 in 10.0 mi NE 8.1 mph - N/A   Clear
2:55 PM 94.1 °F 91.9 °F 54.1 °F 26% 30.03 in 10.0 mi ENE 8.1 mph - N/A   Clear
3:15 PM 94.1 °F - 52.9 °F 25% 30.02 in 10.0 mi East 9.2 mph 16.1 mph N/A   Clear
3:35 PM 93.9 °F - 52.7 °F 25% 30.02 in 10.0 mi ENE 6.9 mph - N/A   Clear
3:55 PM 94.3 °F - 52.9 °F 25% 30.02 in 10.0 mi ESE 10.4 mph - N/A   Clear
4:15 PM 94.3 °F 91.8 °F 53.2 °F 25% 30.02 in 10.0 mi ESE 6.9 mph 19.6 mph N/A   Clear
4:35 PM 93.9 °F - 52.9 °F 25% 30.01 in 10.0 mi ESE 9.2 mph 17.3 mph N/A   Clear
4:55 PM 93.9 °F 91.4 °F 53.4 °F 25% 30.00 in 10.0 mi East 9.2 mph - N/A   Scattered Clouds
5:15 PM 93.9 °F 91.4 °F 53.1 °F 25% 30.00 in 10.0 mi NE 8.1 mph - N/A   Clear
5:35 PM 93.4 °F 91.0 °F 53.4 °F 26% 30.00 in 10.0 mi NE 5.8 mph 10.4 mph N/A   Clear
5:55 PM 93.4 °F 91.0 °F 53.2 °F 26% 30.00 in 10.0 mi ENE 10.4 mph - N/A   Clear
6:15 PM 92.7 °F - 52.7 °F 26% 30.00 in 10.0 mi ENE 9.2 mph - N/A   Clear
6:35 PM 92.3 °F - 52.7 °F 26% 29.99 in 10.0 mi ENE 9.2 mph - N/A   Clear
6:55 PM 91.8 °F 89.3 °F 53.1 °F 27% 29.99 in 10.0 mi East 5.8 mph - N/A   Clear
7:15 PM 91.0 °F 88.7 °F 53.4 °F 28% 30.00 in 10.0 mi ENE 8.1 mph - N/A   Clear
7:35 PM 89.8 °F 87.7 °F 54.5 °F 30% 30.00 in 10.0 mi ENE 6.9 mph - N/A   Clear
7:55 PM 88.2 °F 86.3 °F 55.0 °F 32% 30.00 in 7.0 mi ENE 4.6 mph - N/A   Clear
8:15 PM 86.2 °F 84.7 °F 55.6 °F 35% 30.00 in 10.0 mi East 4.6 mph - N/A   Clear
8:35 PM 84.0 °F 83.2 °F 56.7 °F 39% 30.01 in 10.0 mi East 3.5 mph - N/A   Clear
8:55 PM 82.8 °F 82.2 °F 56.8 °F 41% 30.01 in 10.0 mi East 4.6 mph - N/A   Clear
9:15 PM 81.7 °F 81.5 °F 56.8 °F 43% 30.01 in 10.0 mi East 4.6 mph - N/A   Clear
9:35 PM 81.0 °F 80.9 °F 56.5 °F 43% 30.02 in 10.0 mi East 4.6 mph - N/A   Clear
9:55 PM 80.1 °F 80.3 °F 56.3 °F 44% 30.02 in 10.0 mi East 4.6 mph - N/A   Clear
10:15 PM 79.7 °F - 56.3 °F 44% 30.03 in 10.0 mi East 3.5 mph - N/A   Clear
10:35 PM 78.8 °F - 56.8 °F 47% 30.03 in 10.0 mi East 5.8 mph - N/A   Clear
10:55 PM 78.8 °F - 56.8 °F 47% 30.03 in 10.0 mi East 3.5 mph - N/A   Clear
11:15 PM 78.4 °F - 56.8 °F 47% 30.03 in 10.0 mi East 3.5 mph - N/A   Clear
11:55 PM 77.0 °F - 57.6 °F 51% 30.02 in 10.0 mi East 4.6 mph - N/A   Clear